Regional Weather Roundup
Issued by NWS Sterling, VA

Current Version | Previous Version | Text Only | Print | Product List | Glossary On
Versions: 1 2 3 4 5 6 7 8 9 10 11 12 13 14 15 16 17 18 19 20 21 22 23 24 25 26 27 28 29 30 31 32 33 34 35 36 37 38 39 40 41 42 43 44 45 46 47 48 49 50
038
ASUS41 KLWX 270010
RWRLWX

REGIONAL WEATHER ROUNDUP
NATIONAL WEATHER SERVICE BALTIMORE MD/WASHINGTON DC
800 PM EDT SUN JUN 26 2016

Note: "FAIR" indicates few or no clouds below 12,000 feet
with no significant weather and/or obstructions to visibility.
 TC=TEMPERATURE CELSIUS

 * =Non NWS site. Station does not report precipitation (e.g. rain,
    snow, etc.), thunder, or fog.

DCZ001-MDZ009-015-VAZ040>042-051-053>054-270100-
WASHINGTON METRO

CITY           SKY/WX    TMP DP  RH WIND       PRES   REMARKS
WASHINGTON NAT MOCLDY    79  54  41 S10       30.13F
DULLES         MOCLDY    78  57  48 S7        30.13S
ANDREWS AFB    CLEAR     74  59  58 S7        30.13F
FT BELVOIR     FAIR      76  58  52 S3        30.13F
QUANTICO       FAIR      77  55  46 S8        30.14F
COLLEGE PARK*  FAIR      79  52  38 SE3       30.13F
LEESBURG*      FAIR      82  64  54 S13G18    30.13S
MANASSAS*      CLEAR     75  63  64 S6        30.13F
GAITHERSBURG*  CLEAR     75  54  46 SE7       30.17F

$$

MDZ006>007-011-014-270100-
BALTIMORE METRO

CITY           SKY/WX    TMP DP  RH WIND       PRES   REMARKS
BWI AIRPORT    MOCLDY    78  56  46 S6        30.13F
MD SCIENCE CTR   N/A     81  54  39 MISG      30.13F
MARTIN STATE   PTCLDY    79  63  57 E3        30.14F
ANNAPOLIS      CLEAR     77  58  51 SE6       30.13F
FORT MEADE*    CLEAR     70  61  73 SE3       30.15F

$$

MDZ012-015-019>023-270100-
MARYLAND EASTERN SHORE

CITY           SKY/WX    TMP DP  RH WIND       PRES   REMARKS
OCEAN CITY     CLEAR     69  63  81 SE6       30.17F
SALISBURY      CLEAR     71  62  73 SE7       30.16S
BAY BRIDGE AP* CLEAR     79  59  50 S5        30.14S
CAMBRIDGE*     CLEAR     73  63  68 CALM      30.15S
EASTON*        MOCLDY    79  63  57 SE7       30.18F

$$

MDZ017>025-270100-
SOUTHERN MARYLAND

CITY           SKY/WX    TMP DP  RH WIND       PRES   REMARKS
PATUXENT RIVER CLEAR     75  61  61 S6        30.14F
ST INIGOES     CLEAR     76  62  62 SE6       30.14F
LEONARDTOWN*   CLEAR     73  61  64 CALM      30.16F

$$

MDZ003>005-270100-
NORTH CENTRAL MARYLAND

CITY           SKY/WX    TMP DP  RH WIND       PRES   REMARKS
FREDERICK*     CLEAR     79  55  44 VRB5      30.14F
HAGERSTOWN APT CLEAR     82  58  43 S8        30.11F
WESTMINSTER*   CLEAR     81  70  69 S8        30.14F

$$

MDZ501>502-270100-
WESTERN MARYLAND

CITY           SKY/WX    TMP DP  RH WIND       PRES   REMARKS
OAKLAND*       CLEAR     70  63  78 SE7       30.19S
CUMBERLAND*    CLEAR     81  63  54 SE5       30.13S

$$

VAZ025>031-270100-
SHENANDOAH VALLEY

CITY           SKY/WX    TMP DP  RH WIND       PRES   REMARKS
WINCHESTER*    FAIR      79  59  50 SE9       30.12F
FRONT ROYAL*   FAIR      79  61  53 CALM      30.11F
LURAY*         FAIR      79  61  53 SE3       30.13S
NEW MARKET*    FAIR     N/A N/A N/A S5        30.10F
STAUNTON*      FAIR      76  62  60 S3        30.16F
WAYNESBORO*    FAIR      75  60  60 S6        30.16S

$$

WVZ021-048>050-054>055-270100-
EASTERN WEST VIRGINIA PANHANDLE

CITY           SKY/WX    TMP DP  RH WIND       PRES   REMARKS
MARTINSBURG    FAIR      78  60  53 S6        30.11S
PETERSBURG*    FAIR      79  70  74 CALM      30.11F

$$

VAZ036>039-050-270100-
CENTRAL FOOTHILLS

CITY           SKY/WX    TMP DP  RH WIND       PRES   REMARKS
CHARLOTTESVILL FAIR      80  60  50 SE6       30.13F
CULPEPER*      FAIR      78  59  51 CALM      30.13F
ORANGE*        FAIR      79  63  57 CALM      30.14F
GORDONSVILLE*  FAIR      77  66  69 CALM      30.12F
WARRENTON*     FAIR      78  56  46 SE6       30.13F

$$

VAZ055>057-270100-
NORTH AND CENTRAL PIEDMONT

CITY           SKY/WX    TMP DP  RH WIND       PRES   REMARKS
FREDERICKSBRG* FAIR      79  53  40 E3        30.12S
STAFFORD*      FAIR      76  55  48 E5        30.17S

$$

NCZ024-NYZ072-PAZ021-071-VAZ022-071-270100-
OTHER REGIONAL OBSERVATIONS

CITY           SKY/WX    TMP DP  RH WIND       PRES   REMARKS
NEW YORK CITY  CLEAR     75  52  44 VRB5      30.16F
PHILADELPHIA   MOCLDY    79  57  46 S10G21    30.15S
PITTSBURGH     PTCLDY    87  61  41 SW8       30.04S
ROANOKE        FAIR      77  65  66 SE6       30.16F
RICHMOND       MOCLDY    75  63  66 SE8       30.13F
RALEIGH        MOCLDY    80  62  54 E5        30.13R

$$

ANZ530>537-270100-
MARINE OBSERVATIONS

STATION/POSITION TIME  TEMP    WIND        PRES
                       AIR SEA DIR/SP/G
                 (UTC) (F)     (DEG/KT/KT) (MB)
THOMAS PT LIGHT  0000   78 76  180/  9/ 10 1021.6F
BALT KEY BRIDGE  2330          120/  6/  8 1020.2F
COVE POINT       2330          200/ 13/ 16 1021.5F
LEWISETTA        2330          160/  8/  9 1020.6F
SOLOMONS ISLAND  2324          170/  9/ 11   N/A
PINEY POINT      2324          170/ 11/ 13   N/A

$$





USA.gov is the U.S. government's official web portal to all federal, state and local government web resources and services.